Regional Weather Roundup
Issued by NWS

Home | Current Version | Previous Version | Graphics & Text | Print | Product List | Glossary On
Versions: 1 2 3 4 5 6 7 8 9 10 11 12 13 14 15 16 17 18 19 20 21 22 23 24 25 26 27 28 29 30 31 32 33 34 35 36 37 38 39 40 41 42 43 44 45 46 47 48 49 50
578
ASUS44 KJAN 251610
RWRMS

MISSISSIPPI HOURLY WEATHER ROUNDUP
NATIONAL WEATHER SERVICE JACKSON MS
1000 AM CST TUE NOV 25 2014

NOTE: "FAIR: INDICATES FEW OR NO CLOUDS BELOW 12,000 FEET WITH NO
SIGNIFICANT WEATHER AND/OR OBSTRUCTIONS TO VISIBILITY.

MSZ001>002-007>008-010>013-018>021-025>028-034>036-251700-
NORTHWEST MISSISSIPPI

CITY           SKY/WX    TMP DP  RH WIND       PRES   REMARKS
CLARKSDALE     FAIR      45  28  53 NW7       30.28R
CLEVELAND      FAIR      46  32  57 N7        30.27R
GREENWOOD      PTSUNNY   46  33  60 N9        30.26R
GREENVILLE     PTSUNNY   48  32  53 N9        30.27R
GRENADA        FAIR      45  32  61 CALM      30.26S
OLIVE BRANCH   PTSUNNY   43  25  49 NW9       30.25R
OXFORD         FAIR      45  23  42 N10       30.25F
TUNICA         PTSUNNY   45  30  57 N9        30.28R
$$

MSZ003>006-009-014>017-022>024-029>033-037>039-251700-
NORTHEAST MISSISSIPPI

CITY           SKY/WX    TMP DP  RH WIND       PRES   REMARKS
COLUMBUS AFB   PTSUNNY   48  32  55 N10       30.22S
CORINTH        FAIR      45  28  53 N8        30.23R
GOLDN TRIANGLE SUNNY     48  36  61 N9        30.21S
STARKVILLE     FAIR      46  30  53 N6        30.22S
TUPELO         SUNNY     45  30  55 NE10      30.23R
$$

MSZ040-058-251700-
CENTRAL MISSISSIPPI

CITY           SKY/WX    TMP DP  RH WIND       PRES   REMARKS
JACKSON INTL   PTSUNNY   50  29  44 N16       30.22S
JACKSON HAWKNS PTSUNNY   51  27  39 N6        30.22F
MERIDIAN KEY   SUNNY     55  30  38 N13       30.19F
MERIDIAN NAS   MOSUNNY   54  31  41 N9        30.20S
RAYMOND        FAIR      48  45  87 N8        30.24R
VICKSBURG      CLOUDY    48  33  56 N13       30.26R
$$

MSZ059>079-251700-
SOUTH MISSISSIPPI

CITY           SKY/WX    TMP DP  RH WIND       PRES   REMARKS
BROOKHAVEN     FAIR      52  34  50 NW6       30.23R
COLUMBIA       FAIR      55  32  41 MISG        N/A
HATTIESBURG    MOSUNNY   54  37  52 N7        30.18F
MCCOMB         PTSUNNY   54  28  36 N10       30.20S
NATCHEZ        CLOUDY    48  36  61 N8        30.24R
PINE BELT      SUNNY     54  32  43 N9        30.19F
$$

MSZ080>082-251700-
COASTAL MISSISSIPPI

CITY           SKY/WX    TMP DP  RH WIND       PRES   REMARKS
BAY ST LOUIS   SUNNY     55  34  44 N9        30.17S
BILOXI         CLOUDY    57  35  44 NE12G20   30.14F
PASCAGOULA     PTSUNNY   59  35  40 N16       30.13F
GULFPORT       CLOUDY    56  35  45 N9G20     30.15S
$$



USA.gov is the U.S. government's official web portal to all federal, state and local government web resources and services.